Other Public Products
Issued by NWS Charleston, SC

Current Version | Previous Version | Graphics & Text | Print | Product List | Glossary On
Versions: 1 2 3 4 5 6 7 8 9 10 11 12 13 14 15 16 17 18 19 20 21 22 23 24 25 26 27 28 29 30 31 32 33 34 35 36 37 38 39 40 41 42 43 44 45 46 47 48 49 50
668
FPUS82 KCHS 281827
OPUCHS

TEST...KCHS/KSAV Gateway Observations...TEST
National Weather Service Charleston SC
100 PM EST TUE FEB 28 2017

NOTE: "fair" indicates few or no clouds below 12,000 feet with no
significant weather and/or obstructions to visibility.

SCZ050-WAZ558-NCZ071-TXZ119-213-PAZ071-DCZ001-FLZ074-172-MI076-
NYZ176-178-MAZ016-IL014-TNZ027-NJZ106-GAZ044-MD014-281900-

...Gateway Observations for Charleston International...

CITY           SKY/WX    TMP DP  RH WIND       PRES   REMARKS
Chas Airport   PTSUNNY   75  64  68 SW13      30.25F
6HR MIN TEMP:  63; 6HR MAX TEMP:  76;

Seattle        CLOUDY    38  36  92 S3        30.04R
6HR MIN TEMP:  33; 6HR MAX TEMP:  38;

Charlotte      CLOUDY    71  54  54 SW9G18    30.23F
6HR MIN TEMP:  42; 6HR MAX TEMP:  71;

Dallas DFW     CLOUDY    78  64  61 SW16      29.88F
6HR MIN TEMP:  70; 6HR MAX TEMP:  78;

Dallas Love    CLOUDY    77  64  64 SW13G21   29.90F
6HR MIN TEMP:  71; 6HR MAX TEMP:  77;

Philladelphia  CLOUDY    64  45  49 VRB7      30.24F
6HR MIN TEMP:  43; 6HR MAX TEMP:  64;

Wash National  CLOUDY    64  48  56 S7        30.20F
6HR MIN TEMP:  48; 6HR MAX TEMP:  66;

Baltimore      CLOUDY    61  45  55 E10       30.20F
6HR MIN TEMP:  40; 6HR MAX TEMP:  65;

Miami          PTSUNNY   81  67  62 E15       30.24F
6HR MIN TEMP:  75; 6HR MAX TEMP:  83;

Detroit        CLOUDY    47  45  93 S12       29.93S
6HR MIN TEMP:  41; 6HR MAX TEMP:  47; 6HR PCP:  0.05;

Newark         PTSUNNY   60  44  55 SE5       30.26F
6HR MIN TEMP:  47; 6HR MAX TEMP:  60;

Laguardia      PTSUNNY   50  40  68 NE13      30.27F
6HR MIN TEMP:  44; 6HR MAX TEMP:  51;

J F K          PTSUNNY   57  49  74 SE9       30.29F
6HR MIN TEMP:  44; 6HR MAX TEMP:  58;

Boston Logan   PTSUNNY   48  37  65 E8        30.34F
6HR MIN TEMP:  41; 6HR MAX TEMP:  50;

Ft. Lauderdale MOSUNNY   82  70  66 E16       30.23F
6HR MIN TEMP:  75; 6HR MAX TEMP:  82;

Chicago O`Hare CLOUDY    56  51  84 S18       29.73F
6HR MIN TEMP:  49; 6HR MAX TEMP:  56; 6HR PCP: TRACE;

Chicago Midway CLOUDY    56  51  84 S17       29.75F
6HR MIN TEMP:  50; 6HR MAX TEMP:  56;

Houston Bush   CLOUDY    80  66  62 S10       29.99F
6HR MIN TEMP:  73; 6HR MAX TEMP:  81;

Houston Hobby  PTSUNNY   79  68  69 S15G25    30.00F
6HR MIN TEMP:  71; 6HR MAX TEMP:  80; 6HR PCP: TRACE;

Nashville      CLOUDY    65  60  84 S20G28    30.05F
6HR MIN TEMP:  57; 6HR MAX TEMP:  64; 6HR PCP:  0.13;

Atlanta        PTSUNNY   69  58  67 S10G22    30.23F
6HR MIN TEMP:  50; 6HR MAX TEMP:  69;


$$

GAZ044-118-TXZ119-213-NCZ071-DCZ001-MDZ014-506-PAZ021-071-NJZ106-
NYZ176-178-MAZ106-OHZ011-021-055-MIZ076-KYZ091-ILZ014-INZ047-
MNZ060-ONZ431-281900-

...Gateway Observations for Savannah International...

CITY           SKY/WX    TMP DP  RH WIND       PRES   REMARKS
Savannah Arpt  MOSUNNY   81  64  56 S10       30.23F
6HR MIN TEMP:  63; 6HR MAX TEMP:  81;

Atlanta        PTSUNNY   69  58  67 S10G22    30.23F
6HR MIN TEMP:  50; 6HR MAX TEMP:  69;

Charlotte      CLOUDY    71  54  54 SW9G18    30.23F
6HR MIN TEMP:  42; 6HR MAX TEMP:  71;

Dallas DFW     CLOUDY    78  64  61 SW16      29.88F
6HR MIN TEMP:  70; 6HR MAX TEMP:  78;

Houston Bush   CLOUDY    80  66  62 S10       29.99F
6HR MIN TEMP:  73; 6HR MAX TEMP:  81;

Wash National  CLOUDY    64  48  56 S7        30.20F
6HR MIN TEMP:  48; 6HR MAX TEMP:  66;

Wash Dulles    PTSUNNY   65  41  41 S8        30.18F
6HR MIN TEMP:  38; 6HR MAX TEMP:  65;

Baltimore      CLOUDY    61  45  55 E10       30.20F
6HR MIN TEMP:  40; 6HR MAX TEMP:  65;

Philadelphia   CLOUDY    64  45  49 VRB7      30.24F
6HR MIN TEMP:  43; 6HR MAX TEMP:  64;

Newark         PTSUNNY   60  44  55 SE5       30.26F
6HR MIN TEMP:  47; 6HR MAX TEMP:  60;

Laguardia      PTSUNNY   50  40  68 NE13      30.27F
6HR MIN TEMP:  44; 6HR MAX TEMP:  51;

J F K          PTSUNNY   57  49  74 SE9       30.29F
6HR MIN TEMP:  44; 6HR MAX TEMP:  58;

Boston         PTSUNNY   48  37  65 E8        30.34F
6HR MIN TEMP:  41; 6HR MAX TEMP:  50;

Pittsburg      CLOUDY    55  40  56 S9        30.07F
6HR MIN TEMP:  36; 6HR MAX TEMP:  55;

Akron          CLOUDY    56  41  57 S20G28    30.01F
6HR MIN TEMP:  39; 6HR MAX TEMP:  56;

Cleveland      PTSUNNY   58  41  53 S14G28    29.99F
6HR MIN TEMP:  43; 6HR MAX TEMP:  60;

Cincinnati     CLOUDY    52  51  97 SE13      29.99F
6HR MIN TEMP:  45; 6HR MAX TEMP:  52; 6HR PCP:  1.01;

Columbus       LGT RAIN  47  47 100 S12       29.98F
Detroit        CLOUDY    47  45  93 S12       29.93S
6HR MIN TEMP:  41; 6HR MAX TEMP:  47; 6HR PCP:  0.05;

Chicago O`Hare CLOUDY    56  51  84 S18       29.73F
6HR MIN TEMP:  49; 6HR MAX TEMP:  56; 6HR PCP: TRACE;

Minneapolis    CLOUDY    45  32  60 NE12G26   29.68F
6HR MIN TEMP:  36; 6HR MAX TEMP:  45;

Indianapolis   DRIZZLE   53  52  96 S10       29.90F FOG
6HR MIN TEMP:  46; 6HR MAX TEMP:  53; 6HR PCP:  0.01;

Toronto Canada CLOUDY    46  37  71 SE8       30.03F

$$




USA.gov is the U.S. government's official web portal to all federal, state and local government web resources and services.